Погода в Богураеве

Россия / Ростовская область     48°08′50″N   40°42′10″E
темп.,
°C
ветер,
м/с
пор.,
м/с
влажн.,
%
обл.,
%
осадки,
мм/ч
давл.,
гПа
погр.,
м
15 августа, пн
пн1500:00+28в1019211 0.0 1010747
03:00+26в715255 0.0 1010471
06:00+25всв6122859 0.0 1010305
09:00+32в8132033 0.0 10101050
12:00+37вюв10131594 0.0 10103091
15:00+38вюв1012135 0.0 10083753
18:00+37в9111537 0.0 10083641
21:00+34в101519100 0.0 1009989
16 августа, вт
вт1600:00+31в101724100 0.0 1010995
03:00+28в9172792 0.0 1011714
06:00+27в8172193 0.0 1011642
09:00+30в91420100 0.0 1011879
12:00+34вюв91216100 0.0 10111855
15:00+35в71117100 0.0 10092239
18:00+36в6917100 0.0 10082400
21:00+31в41025100 0.0 1009218
17 августа, ср
ср1700:00+31в71221100 0.0 1009601
03:00+26вюв35336 0.1 100872
06:00+24в48388 0.0 1009193
09:00+30юв453097 0.0 1009707
12:00+34ююз332572 0.0 10081670
15:00+36ююз3425100 0.0 10072808
18:00+35юз432671 0.0 10061669
21:00+29зюз493535 0.0 1007164
18 августа, чт
чт1800:00+25зсз344448 0.1 100771
03:00+25ююз1149100 0.2 100711
06:00+25ююз1156100 0.3 100711
09:00+28ююз2344100 0.5 1008359
12:00+30ююв333757 1.9 1008680
15:00+28ю4452100 5.3 1008517
18:00+30юв36434 0.5 1006258
21:00+26всв125492 0.5 100849
19 августа, пт
пт1900:00+24в22580 0.0 100821
03:00+23в3563100 0.0 100875
06:00+22вюв3564100 0.0 1008147
09:00+25вюв565098 0.2 1010503
12:00+32вюв5529100 0.2 10091456
15:00+33вюв6624100 0.3 10091628
18:00+30всв3438100 0.3 1008110
21:00+25юв3852100 0.9 1011160